カタログに戻る

DELTA 1 DEB

運用中LEO
NORAD 10184·DEBRIS·🇺🇸 United States

打ち上げ Jul 14, 1977 から Cape Canaveral Space Force Station

Loading…

次のパス (今後24時間)

TLE

最新Source: Space-Track

元期: Sep 14, 2026, 10:51 UTC

1 10184U 77065N   26257.45260494  .00000440  00000-0  76148-4 0  9993
2 10184  29.0792 177.0747 0754727 256.3720  95.1749 13.49654523379337

AllMySatでDELTA 1 DEBをリアルタイム追跡

Download on the App Store